Omaha, IA

8:20 AM CDT on October 18, 2017 (GMT -0500)
Eppley Airfield

Weather History for KOMA - July, 2013

Change the Weather History Date:

Saturday, July 27, 2013

  Actual Average Record
Temperature  
Mean Temperature 64 °F 77 °F  
Max Temperature 75 °F 87 °F 109 °F (1930)
Min Temperature 53 °F 66 °F 53 °F (2005)
Degree Days  
Heating Degree Days 1 0  
Month to date heating degree days 1 0  
Since 1 June heating degree days 17 17  
Since 1 July heating degree days 1 0  
Cooling Degree Days 0 12  
Month to date cooling degree days 347 320  
Year to date cooling degree days 678 632  
Since 1 June cooling degree days 582 550  
Growing Degree Days 14 (Base 50)    
Moisture  
Dew Point 48 °F    
Average Humidity 63    
Maximum Humidity 93    
Minimum Humidity 33    
Precipitation  
Precipitation 0.00 in 0.12 in 1.77 in (1875)
Month to date precipitation 0.38 3.32  
Year to date precipitation 19.46 18.78  
Snow  
Snow 0.00 in 0.00 in - ()
Month to date snowfall 0.0 0.0  
Since 1 July snowfall 0.0 0.0  
Snow Depth 0.00 in    
Sea Level Pressure  
Sea Level Pressure 30.08 in    
Wind  
Wind Speed 8 mph (NNW)    
Max Wind Speed 20 mph    
Max Gust Speed 26 mph    
Visibility 10 miles    
Events      
T = Trace of Precipitation, MM = Missing Value Source: NWS Daily Summary

Daily Weather History Graph

Daily Weather History Graph

Search for Another Location

Airport or City:

Trip Planner

Search our weather history database for the weather conditions in past years. The results will help you decide how hot, cold, wet, or windy it might be!

Date:

Astronomy

Jul. 27, 2013 Rise Set
Actual Time 6:14 AM CDT 8:45 PM CDT
Civil Twilight 5:42 AM CDT 9:16 PM CDT
Nautical Twilight 5:03 AM CDT 9:55 PM CDT
Astronomical Twilight 4:19 AM CDT 10:39 PM CDT
Moon 11:28 PM CDT (7/27) 12:00 PM CDT (7/27)
Length of Visible Light 15h 34m
Length of Day
14h 31m
Waning Gibbous, 70% of the Moon is Illuminated
Jul 27
Waning Gibbous
Jul 29
Last Quarter
Aug 6
New
Aug 14
First Quarter
Aug 20
Full

Hourly Weather History & Observations

Time (CDT) Temp. Dew Point Humidity Pressure Visibility Wind Dir Wind Speed Gust Speed Precip Events Conditions
12:52 AM 60.1 °F 54.0 °F 80% 30.11 in 10.0 mi NNW 3.5 mph - N/A   Clear
1:52 AM 57.0 °F 53.1 °F 87% 30.11 in 10.0 mi North 4.6 mph - N/A   Clear
2:52 AM 57.0 °F 54.0 °F 89% 30.10 in 10.0 mi North 3.5 mph - N/A   Clear
3:52 AM 55.9 °F 53.1 °F 90% 30.10 in 10.0 mi North 5.8 mph - N/A   Clear
4:52 AM 54.0 °F 52.0 °F 93% 30.10 in 10.0 mi North 5.8 mph - N/A   Clear
5:52 AM 54.0 °F 51.1 °F 90% 30.12 in 10.0 mi North 6.9 mph - N/A   Clear
6:52 AM 54.0 °F 51.1 °F 90% 30.13 in 10.0 mi North 4.6 mph - N/A   Partly Cloudy
7:52 AM 57.0 °F 52.0 °F 83% 30.14 in 10.0 mi NNW 4.6 mph - N/A   Partly Cloudy
8:52 AM 61.0 °F 51.1 °F 70% 30.14 in 10.0 mi North 9.2 mph - N/A   Partly Cloudy
9:52 AM 66.0 °F 50.0 °F 56% 30.13 in 10.0 mi NNW 8.1 mph - N/A   Scattered Clouds
10:52 AM 69.1 °F 46.0 °F 44% 30.12 in 10.0 mi NNW 13.8 mph 23.0 mph N/A   Scattered Clouds
11:52 AM 69.1 °F 43.0 °F 39% 30.11 in 10.0 mi North 13.8 mph 21.9 mph N/A   Scattered Clouds
12:52 PM 71.1 °F 44.1 °F 38% 30.10 in 10.0 mi NW 8.1 mph 26.5 mph N/A   Scattered Clouds
1:52 PM 73.0 °F 43.0 °F 34% 30.08 in 10.0 mi North 16.1 mph - N/A   Scattered Clouds
2:52 PM 73.0 °F 45.0 °F 37% 30.07 in 10.0 mi NW 10.4 mph 19.6 mph N/A   Scattered Clouds
3:52 PM 73.9 °F 45.0 °F 35% 30.04 in 10.0 mi North 13.8 mph 20.7 mph N/A   Mostly Cloudy
4:52 PM 73.9 °F 45.0 °F 35% 30.03 in 10.0 mi NW 8.1 mph - N/A   Mostly Cloudy
5:52 PM 73.9 °F 46.0 °F 37% 30.02 in 10.0 mi NW 9.2 mph - N/A   Scattered Clouds
6:52 PM 73.0 °F 44.1 °F 35% 30.01 in 10.0 mi NNW 6.9 mph - N/A   Scattered Clouds
7:52 PM 71.1 °F 46.9 °F 42% 30.02 in 10.0 mi North 8.1 mph - N/A   Scattered Clouds
8:52 PM 64.9 °F 46.9 °F 52% 30.03 in 10.0 mi North 6.9 mph - N/A   Scattered Clouds
9:52 PM 61.0 °F 48.9 °F 64% 30.04 in 10.0 mi North 4.6 mph - N/A   Scattered Clouds
10:52 PM 57.9 °F 48.0 °F 70% 30.04 in 10.0 mi North 3.5 mph - N/A   Partly Cloudy
11:52 PM 57.9 °F 48.0 °F 70% 30.05 in 10.0 mi NW 4.6 mph - N/A   Partly Cloudy